COSMOS 375 DEB

Satellite information

Favourite Embed

Satellite Type and Status

DEBRISIN ORBIT

Key statistics

Satellite COSMOS 375 DEB at a glance.

Uptime

20036

Days in orbit

Revolutions

≈ 14.0

Per day

Orbit

LEO

Low Earth Orbit

Inclination

62.8

Latest

Satellite identification and parameters

Extended collection of information and parameters for COSMOS 375 DEB.

Object identification

Identified? True

Debris? True

Object name: COSMOS 375 DEB

International designator: 1970-091L

Object number (NORAD): 4634

Object ID (CCSDS): 4634

Country: COMMONWEALTH OF INDEPENDENT STATES (CIS)

Current information (Y/N): Y

RCS size: SMALL

Orbital parameters

Period: 102.542 minutes

Inclination: 62.7884 deg

SMA: 7257.07 km

Apoapsis: 1270.653 km

Periapsis: 487.217 km

RAAN: 218.1739 deg

Eccentricy: 0.05397745

Argument of periapsis: 46.4248 deg

Mean anomaly: 318.032 deg

Mean motion: 14.04302877 rev/day

Mean motion (dot): 0.00013923 rev/day2

B* drag term: 0.0023117518 1/REarth

Two-line elements (TLE)

Creation date: Sept. 7, 2025, 3:09 a.m.

Reference frame: TEME

Reference center: EARTH

Epoch: Sept. 6, 2025, 7:37 a.m. UTC

TLE line 0: 0 COSMOS 375 DEB

TLE line 1: 1 04634U 70091L 25249.31791507 .00013923 00000-0 23118-2 0 9994

TLE line 2: 2 04634 62.7884 218.1739 0539774 46.4248 318.0320 14.04302877704440

Live tracking on map

Real-time ground track for satellite COSMOS 375 DEB.

In-orbit conjunctions

A list of the most updated potential collisions computed for object COSMOS 375 DEB.

Target Orbit TCA Probability of collision Miss distance Type
SL-8 R/B LEO 2025-06-11 01:01:15 0.0002794211 546.0 (m) ROCKET BODY
CZ-6A DEB LEO 2024-10-14 02:20:59 0.0002132949 874.0 (m) DEBRIS

Associated space launch

The I2P satellites were the first soviet coorbital ASAT system.

COSMOS 375 DEB was lifted into orbit during the mission ‘Tsiklon-2 | I2P 5’, on board a Tsiklon-2 space rocket.

The launch took place on Oct. 30, 1970, 2:36 a.m. from 90/20.

For more information about the launch, click the button.

Launch to space Tsiklon-2 | I2P 5
Tsiklon-2 | I2P 5

Agency: N/A

Status: Launch Successful

Launch date: Oct. 30, 1970, 2:36 a.m. UTC

Rocket: Tsiklon-2

Launch pad: 90/20

Location: Baikonur Cosmodrome, Republic of Kazakhstan

...

Latest news about this satellite

There are no fresh news available about this satellite. Check back as we update our databases every day.


Newsletter sign-up

Weekly statistics, charts and insights to help you stay on top of the space industry.